TimeEST,TemperatureF,Dew PointF,Humidity,Sea Level PressureIn,VisibilityMPH,Wind Direction,Wind SpeedMPH,Gust SpeedMPH,PrecipitationIn,Events,Conditions,WindDirDegrees,DateUTC
12:15 AM,19.4,17.6,93,30.05,10.0,Calm,Calm,-,N/A,,Overcast,0,2013-12-20 05:15:00
12:35 AM,21.2,19.4,93,30.06,10.0,NNE,3.5,-,N/A,,Overcast,30,2013-12-20 05:35:00
12:55 AM,21.2,19.4,93,30.05,10.0,Calm,Calm,-,N/A,,Overcast,0,2013-12-20 05:55:00
1:15 AM,21.2,17.6,86,30.06,10.0,Calm,Calm,-,N/A,,Overcast,0,2013-12-20 06:15:00
1:35 AM,21.2,17.6,86,30.07,10.0,Calm,Calm,-,N/A,,Overcast,0,2013-12-20 06:35:00
1:55 AM,21.2,19.4,93,30.08,10.0,Calm,Calm,-,N/A,,Overcast,0,2013-12-20 06:55:00
2:15 AM,23.0,19.4,86,30.08,10.0,Calm,Calm,-,N/A,,Overcast,0,2013-12-20 07:15:00
2:35 AM,21.2,19.4,93,30.09,10.0,Calm,Calm,-,N/A,,Overcast,0,2013-12-20 07:35:00
2:55 AM,21.2,19.4,93,30.09,10.0,North,3.5,-,N/A,,Overcast,10,2013-12-20 07:55:00
3:15 AM,21.2,17.6,86,30.08,10.0,Calm,Calm,-,N/A,,Mostly Cloudy,0,2013-12-20 08:15:00
3:35 AM,23.0,19.4,86,30.08,10.0,Calm,Calm,-,N/A,,Scattered Clouds,0,2013-12-20 08:35:00
3:55 AM,21.2,19.4,93,30.09,10.0,Calm,Calm,-,N/A,,Mostly Cloudy,0,2013-12-20 08:55:00
4:15 AM,24.8,19.4,80,30.08,10.0,Calm,Calm,-,N/A,,Scattered Clouds,0,2013-12-20 09:15:00
4:35 AM,23.0,19.4,86,30.07,10.0,Calm,Calm,-,N/A,,Clear,0,2013-12-20 09:35:00
4:55 AM,23.0,19.4,86,30.06,10.0,Calm,Calm,-,N/A,,Clear,0,2013-12-20 09:55:00
5:15 AM,21.2,17.6,86,30.07,10.0,Calm,Calm,-,N/A,,Mostly Cloudy,0,2013-12-20 10:15:00
5:35 AM,23.0,19.4,86,30.08,10.0,Calm,Calm,-,N/A,,Overcast,0,2013-12-20 10:35:00
5:55 AM,24.8,19.4,80,30.09,10.0,Calm,Calm,-,N/A,,Overcast,0,2013-12-20 10:55:00
6:15 AM,24.8,19.4,80,30.08,10.0,Calm,Calm,-,N/A,,Overcast,0,2013-12-20 11:15:00
6:35 AM,24.8,21.2,86,30.08,10.0,Calm,Calm,-,N/A,,Overcast,0,2013-12-20 11:35:00
6:55 AM,24.8,21.2,86,30.07,10.0,Calm,Calm,-,N/A,,Overcast,0,2013-12-20 11:55:00
7:15 AM,24.8,19.4,80,30.07,9.0,Calm,Calm,-,N/A,,Overcast,0,2013-12-20 12:15:00
7:35 AM,24.8,21.2,86,30.08,9.0,NNE,3.5,-,N/A,,Overcast,20,2013-12-20 12:35:00
7:55 AM,24.8,19.4,80,30.08,10.0,Calm,Calm,-,N/A,,Overcast,0,2013-12-20 12:55:00
8:15 AM,24.8,21.2,86,30.07,10.0,Calm,Calm,-,N/A,,Overcast,0,2013-12-20 13:15:00
8:35 AM,24.8,21.2,86,30.08,10.0,NNW,3.5,-,N/A,,Overcast,330,2013-12-20 13:35:00
8:55 AM,24.8,21.2,86,30.07,10.0,NNE,3.5,-,N/A,,Overcast,20,2013-12-20 13:55:00
9:15 AM,26.6,21.2,80,30.07,10.0,Calm,Calm,-,N/A,,Overcast,0,2013-12-20 14:15:00
9:35 AM,26.6,23.0,86,30.06,10.0,Calm,Calm,-,N/A,,Overcast,0,2013-12-20 14:35:00
9:55 AM,26.6,23.0,86,30.06,10.0,Calm,Calm,-,N/A,,Overcast,0,2013-12-20 14:55:00
10:15 AM,26.6,21.2,80,30.05,10.0,Calm,Calm,-,N/A,,Overcast,0,2013-12-20 15:15:00
10:35 AM,28.4,24.8,86,30.03,10.0,Calm,Calm,-,N/A,,Overcast,0,2013-12-20 15:35:00
10:55 AM,28.4,23.0,80,30.02,9.0,Calm,Calm,-,N/A,,Overcast,0,2013-12-20 15:55:00
11:15 AM,28.4,23.0,80,30.00,9.0,Calm,Calm,-,N/A,,Overcast,0,2013-12-20 16:15:00
11:35 AM,28.4,24.8,86,29.98,9.0,Calm,Calm,-,N/A,,Overcast,0,2013-12-20 16:35:00
11:55 AM,30.2,24.8,80,29.97,9.0,Calm,Calm,-,N/A,,Overcast,0,2013-12-20 16:55:00
12:15 PM,30.2,24.8,80,29.95,10.0,Calm,Calm,-,N/A,,Mostly Cloudy,0,2013-12-20 17:15:00
12:35 PM,30.2,24.8,80,29.94,10.0,Calm,Calm,-,N/A,,Clear,0,2013-12-20 17:35:00
12:55 PM,33.8,26.6,75,29.93,10.0,Calm,Calm,-,N/A,,Clear,0,2013-12-20 17:55:00
1:15 PM,33.8,26.6,75,29.92,10.0,Calm,Calm,-,N/A,,Partly Cloudy,0,2013-12-20 18:15:00
1:35 PM,35.6,26.6,70,29.91,10.0,Calm,Calm,-,N/A,,Mostly Cloudy,0,2013-12-20 18:35:00
1:55 PM,35.6,26.6,70,29.90,10.0,Calm,Calm,-,N/A,,Mostly Cloudy,0,2013-12-20 18:55:00
2:15 PM,35.6,26.6,70,29.90,10.0,North,3.5,-,N/A,,Mostly Cloudy,360,2013-12-20 19:15:00
2:35 PM,35.6,26.6,70,29.90,10.0,North,3.5,-,N/A,,Mostly Cloudy,360,2013-12-20 19:35:00
2:55 PM,35.6,26.6,70,29.91,10.0,NNE,4.6,-,N/A,,Overcast,20,2013-12-20 19:55:00
3:15 PM,35.6,28.4,75,29.91,10.0,North,4.6,-,N/A,,Overcast,10,2013-12-20 20:15:00
3:35 PM,35.6,26.6,70,29.91,10.0,Calm,Calm,-,N/A,,Overcast,0,2013-12-20 20:35:00
3:55 PM,33.8,28.4,81,29.90,10.0,North,4.6,-,N/A,,Overcast,10,2013-12-20 20:55:00
4:15 PM,33.8,28.4,81,29.89,10.0,NNE,3.5,-,N/A,,Mostly Cloudy,20,2013-12-20 21:15:00
4:35 PM,33.8,28.4,81,29.89,10.0,Calm,Calm,-,N/A,,Mostly Cloudy,0,2013-12-20 21:35:00
4:55 PM,33.8,28.4,81,29.89,10.0,North,3.5,-,N/A,,Mostly Cloudy,10,2013-12-20 21:55:00
5:15 PM,33.8,28.4,81,29.89,10.0,North,4.6,-,N/A,,Overcast,360,2013-12-20 22:15:00
5:35 PM,33.8,28.4,81,29.90,10.0,North,5.8,-,N/A,,Overcast,360,2013-12-20 22:35:00
5:55 PM,33.8,28.4,81,29.90,10.0,North,5.8,-,N/A,,Overcast,10,2013-12-20 22:55:00
6:15 PM,33.8,28.4,81,29.91,10.0,North,4.6,-,N/A,,Overcast,360,2013-12-20 23:15:00
6:35 PM,33.8,28.4,81,29.91,10.0,NNE,4.6,-,N/A,,Overcast,20,2013-12-20 23:35:00
6:55 PM,33.8,28.4,81,29.92,9.0,North,5.8,-,N/A,,Overcast,10,2013-12-20 23:55:00
7:15 PM,32.0,28.4,87,29.92,8.0,North,6.9,-,N/A,,Overcast,10,2013-12-21 00:15:00
7:35 PM,32.0,28.4,87,29.92,8.0,North,6.9,-,N/A,,Overcast,10,2013-12-21 00:35:00
7:55 PM,32.0,28.4,87,29.92,8.0,North,5.8,-,N/A,,Overcast,360,2013-12-21 00:55:00
8:15 PM,32.0,28.4,87,29.92,8.0,North,4.6,-,N/A,,Overcast,360,2013-12-21 01:15:00
8:35 PM,32.0,28.4,87,29.92,8.0,NNE,3.5,-,N/A,,Overcast,20,2013-12-21 01:35:00
8:55 PM,32.0,28.4,87,29.94,8.0,NNW,4.6,-,N/A,,Overcast,330,2013-12-21 01:55:00
9:15 PM,32.0,28.4,87,29.93,7.0,North,4.6,-,N/A,,Overcast,10,2013-12-21 02:15:00
9:35 PM,32.0,28.4,87,29.92,8.0,NNE,6.9,-,N/A,,Overcast,20,2013-12-21 02:35:00
9:55 PM,32.0,28.4,87,29.93,7.0,NNE,3.5,-,N/A,,Overcast,20,2013-12-21 02:55:00
10:15 PM,32.0,28.4,87,29.93,7.0,NNE,3.5,-,N/A,,Overcast,30,2013-12-21 03:15:00
10:35 PM,32.0,28.4,87,29.93,8.0,NNE,4.6,-,N/A,,Overcast,20,2013-12-21 03:35:00
10:55 PM,32.0,28.4,87,29.93,8.0,North,4.6,-,N/A,,Overcast,10,2013-12-21 03:55:00
11:15 PM,32.0,28.4,87,29.94,8.0,Calm,Calm,-,N/A,,Overcast,0,2013-12-21 04:15:00
11:35 PM,32.0,28.4,87,29.92,8.0,Calm,Calm,-,N/A,,Overcast,0,2013-12-21 04:35:00
11:55 PM,32.0,28.4,87,29.92,7.0,NNE,4.6,-,N/A,,Overcast,20,2013-12-21 04:55:00